GEI-SAT Precursor

operational
NORAD ID: 56934 Int'l Des: 2023-084 Owner: SATLAN Country: E
LEOCIRCULARRETROGRADESSO

About GEI-SAT Precursor

Description loading...

Live Position

Loading 3D Globe...

Upcoming Passes

Altitude History

Altitude vs Time

uPlot chart will show altitude changes over time

Two-Line Element Set

1 56934U 23084C 26062.20757370 .00010956 00000-0 34714-3 0 9994
2 56934 97.6041 199.9139 0005667 11.6353 348.5018 15.32894271151288
Epoch: Mar 3, 2026 • Age: 12 hours

Current Status

Altitude 475.6 km
Velocity 7.63 km/s
Sub-Earth Point -8.28°S, 36.83°E
Launch Date Jun 12, 2023
Age 2.7 years
Type other

Technical Details

Classification Payload
Mass 20.00 kg
Dry Mass 20.00 kg
Total Mass 20.00 kg
Length 0.40 m
Diameter 0.20 m
Span 0.40 m
Shape Box
Manufacturer NANAV
Bus Type Cubesat 16U M16P
Phase Status In Orbit
Owner/State SATLAN/E

Large Constellations

Loading constellations...